Tracking 25195 objects as of 20-Jan-2022
HD Live streaming from Space Station
objects crossing your sky now

STARLINK-2197

Track STARLINK-2197 now!
10-day predictions
STARLINK-2197 is classified as:


NORAD ID: 47774
Int'l Code: 2021-017BE
Perigee: 552.7 km
Apogee: 556.0 km
Inclination: 53.1 °
Period: 95.6 minutes
Semi major axis: 6925 km
RCS: Unknown
Launch date: March 4, 2021
Source: United States (US)
Launch site: AIR FORCE EASTERN TEST RANGE (AFETR)
aabbcc
Your satellite tracking list
Your tracking list is empty




NASA's NSSDC Master Catalog

Two Line Element Set (TLE):
1 47774U 21017BE  22019.75853472  .00001583  00000-0  12518-3 0  9992
2 47774  53.0547 159.9585 0002358  88.2404 271.8855 15.06398498 50016
Source of the keplerian elements: AFSPC